Vicksburg, LA

2:13 AM CST on January 24, 2018 (GMT -0600)
Vicksburg Tallulah Regional

Weather History for KTVR - October, 2010

Change the Weather History Date:

Sunday, October 24, 2010

  Actual Average Record
Temperature  
Mean Temperature 74 °F 63 °F  
Max Temperature 87 °F 76 °F 89 °F (2003)
Min Temperature 63 °F 50 °F 29 °F (1952)
Degree Days  
Heating Degree Days 0 5  
Month to date heating degree days 58  
Since 1 July heating degree days 63  
Cooling Degree Days 10 3  
Month to date cooling degree days 98  
Year to date cooling degree days 2195  
Growing Degree Days 24 (Base 50)    
Moisture  
Dew Point 61 °F    
Average Humidity 66    
Maximum Humidity 90    
Minimum Humidity 37    
Precipitation  
Precipitation 0.04 in 0.17 in 2.57 in (1997)
Month to date precipitation 3.73  
Year to date precipitation 43.19  
Sea Level Pressure  
Sea Level Pressure 29.97 in    
Wind  
Wind Speed 8 mph (South)    
Max Wind Speed 15 mph    
Max Gust Speed 32 mph    
Visibility 9 miles    
Events Rain    
T = Trace of Precipitation, MM = Missing Value Source: NWS Daily Summary

Daily Weather History Graph

Daily Weather History Graph

Search for Another Location

Airport or City:

Trip Planner

Search our weather history database for the weather conditions in past years. The results will help you decide how hot, cold, wet, or windy it might be!

Date:

Astronomy

Oct. 24, 2010 Rise Set
Actual Time 7:14 AM CDT 6:21 PM CDT
Civil Twilight 6:49 AM CDT 6:46 PM CDT
Nautical Twilight 6:20 AM CDT 7:15 PM CDT
Astronomical Twilight 5:52 AM CDT 7:43 PM CDT
Moon 7:14 PM CDT 8:46 AM CDT
Length of Visible Light 11h 56m
Length of Day
11h 06m
Full, 97% of the Moon is Illuminated
Oct 24
Full
Oct 30
Last Quarter
Nov 5
New
Nov 13
First Quarter
Nov 21
Full

Hourly Weather History & Observations

Time (CDT) Temp. Heat Index Dew Point Humidity Pressure Visibility Wind Dir Wind Speed Gust Speed Precip Events Conditions
12:53 AM 66.0 °F - 57.9 °F 75% 30.09 in 10.0 mi South 6.9 mph - N/A   Clear
1:53 AM 66.9 °F - 59.0 °F 76% 30.07 in 10.0 mi SSE 10.4 mph - N/A   Clear
2:53 AM 68.0 °F - 61.0 °F 78% 30.05 in 10.0 mi SSE 8.1 mph - N/A   Clear
3:53 AM 66.0 °F - 61.0 °F 84% 30.02 in 10.0 mi SSE 8.1 mph - N/A   Clear
4:53 AM 63.0 °F - 59.0 °F 87% 30.03 in 10.0 mi Calm Calm - N/A   Scattered Clouds
5:53 AM 63.0 °F - 60.1 °F 90% 30.04 in 10.0 mi Calm Calm - N/A   Clear
6:53 AM 64.0 °F - 61.0 °F 90% 30.04 in 6.0 mi SSE 4.6 mph - N/A   Clear
7:22 AM 66.2 °F - 62.6 °F 88% 30.02 in 5.0 mi SSE 6.9 mph - N/A   Scattered Clouds
7:53 AM 66.9 °F - 64.0 °F 90% 30.04 in 5.0 mi SSE 10.4 mph - N/A   Clear
8:53 AM 72.0 °F - 66.0 °F 81% 30.05 in 8.0 mi South 11.5 mph - N/A   Clear
9:53 AM 75.0 °F - 66.0 °F 73% 30.06 in 10.0 mi South 10.4 mph - N/A   Partly Cloudy
10:53 AM 78.1 °F - 64.0 °F 62% 30.04 in 10.0 mi South 13.8 mph 17.3 mph N/A   Mostly Cloudy
11:53 AM 80.1 °F 81.2 °F 62.1 °F 54% 30.03 in 10.0 mi South 11.5 mph 17.3 mph N/A   Scattered Clouds
12:53 PM 81.0 °F 81.7 °F 61.0 °F 50% 29.99 in 10.0 mi SW 10.4 mph 19.6 mph N/A   Scattered Clouds
1:53 PM 84.9 °F 84.8 °F 60.1 °F 43% 29.96 in 10.0 mi SW 9.2 mph 19.6 mph N/A   Scattered Clouds
2:53 PM 84.9 °F 84.4 °F 59.0 °F 41% 29.93 in 10.0 mi South 13.8 mph 24.2 mph N/A   Partly Cloudy
3:53 PM 86.0 °F 85.0 °F 57.9 °F 38% 29.89 in 10.0 mi South 12.7 mph 17.3 mph N/A   Clear
4:53 PM 84.9 °F 83.7 °F 55.9 °F 37% 29.87 in 10.0 mi South 15.0 mph 19.6 mph N/A   Clear
5:53 PM 82.0 °F 81.6 °F 55.9 °F 41% 29.86 in 10.0 mi South 9.2 mph - N/A   Clear
6:53 PM 78.1 °F - 57.0 °F 48% 29.86 in 10.0 mi South 4.6 mph - N/A   Clear
7:53 PM 75.9 °F - 60.1 °F 58% 29.84 in 10.0 mi South 8.1 mph - N/A   Clear
8:53 PM 73.9 °F - 62.1 °F 66% 29.85 in 10.0 mi South 6.9 mph - N/A   Clear
9:53 PM 75.0 °F - 64.0 °F 69% 29.84 in 10.0 mi South 11.5 mph - N/A   Clear
10:53 PM 73.9 °F - 66.0 °F 76% 29.89 in 10.0 mi WSW 5.8 mph - N/A   Clear
11:37 PM 68.0 °F - 55.4 °F 64% 29.94 in 10.0 mi NNW 13.8 mph 25.3 mph N/A   Overcast
11:53 PM 66.0 °F - 55.0 °F 68% 29.97 in 7.0 mi North 15.0 mph 32.2 mph 0.04 in Rain Rain